RORVIK / RYUM current weather conditions

sailwx.info

Wind from 030 at 3 knots

Air temperature 6.0° C
Visibility: greater than 5.4 NM
Dewpoint 5.0° C
Present weather: Showers in the vicinity.

Last reported at 2014-Oct-25 05:20 UTC.
Time now 2014-Oct-25 07:11 UTC

Location: N 64°50' E 011°09'.
View on Google Maps.

See reports from other nearby stations

  
Tides and Currents Weather Stations Pressure Air Temp Water Temp Dewpoint Dewpoint Depression Visibility Wind Speed Wind Dir Waves Ship Positions
date/time (UTC)wind fromknots sea level pressurealtimeterstation pressurevisibilityair tempwater tempwave heightnotes
2014-Oct-25 06:50 020 2 5.4 6.0
2014-Oct-25 06:20 020 4 5.4 6.0 Showers in the vicinity.
2014-Oct-25 05:20 030 3 5.4 6.0 Showers in the vicinity.
2014-Oct-24 20:20 090 6 5.4 8.0 Showers in the vicinity.
2014-Oct-24 19:50 090 7 5.4 8.0 Showers in the vicinity.
2014-Oct-24 19:20 100 6 5.4 8.0 Showers in the vicinity.
2014-Oct-24 18:50 090 5 5.4 8.0 Light rain showers.
2014-Oct-24 18:20 100 7 5.4 8.0 Light rain showers.
2014-Oct-24 17:20 090 6 5.4 8.0 Light rain showers.
2014-Oct-24 15:50 120 8 5.4 9.0 Light rain showers.
2014-Oct-24 15:20 150 8 5.4 9.0 Light rain showers.
2014-Oct-24 14:50 170 10 5.410.0 Light rain showers.
2014-Oct-24 13:50 160 9 5.410.0
2014-Oct-24 13:20 170 8 5.411.0
2014-Oct-24 12:50 170 8 5.411.0
2014-Oct-24 12:20 160 8 5.411.0
2014-Oct-24 11:50 160 7 5.411.0
2014-Oct-24 09:50 160 11 5.410.0
2014-Oct-24 09:20 160 10 5.410.0
2014-Oct-24 08:50 140 10 5.410.0
2014-Oct-24 07:50 150 12 5.410.0 Light rain.
2014-Oct-24 06:50 120 13 5.4 9.0
2014-Oct-24 05:20 130 14 5.4 8.0 Light rain.
2014-Oct-24 04:50 130 14 5.4 8.0 Light rain.
2014-Oct-24 04:20 130 13 5.4 8.0 Light rain.
2014-Oct-24 03:50 130 13 5.4 8.0 Light rain.
2014-Oct-23 20:20 120 12 5.4 7.0 Light drizzle.
2014-Oct-23 19:50 120 12 5.4 7.0 Light rain drizzle.
2014-Oct-23 19:20 130 11 5.4 7.0 Light rain.
2014-Oct-23 18:50 130 11 5.4 7.0 Light rain showers.
2014-Oct-23 18:20 130 13 gusting 25 5.4 7.0 Light drizzle.
2014-Oct-23 17:50 140 15 5.4 7.0 Light rain drizzle.
2014-Oct-23 16:50 130 14 5.4 7.0 Light rain showers.
2014-Oct-23 16:20 140 15 gusting 26 5.4 7.0 Light drizzle.
2014-Oct-23 15:50 140 18 5.4 7.0 Light rain showers.
2014-Oct-23 15:20 140 15 5.4 7.0 Light rain showers.
2014-Oct-23 14:50 130 15 5.4 7.0 Light rain showers.
2014-Oct-23 14:20 130 16 gusting 26 5.4 7.0 Light rain.
2014-Oct-23 13:50 130 16 gusting 30 5.4 7.0
2014-Oct-23 13:20 130 18 gusting 30 5.4 7.0
2014-Oct-23 12:50 130 19 gusting 31 5.4 7.0
2014-Oct-23 12:20 130 19 5.4 7.0
2014-Oct-23 11:50 120 18 gusting 29 5.4 7.0 Showers in the vicinity.
2014-Oct-23 11:20 120 20 gusting 32 5.4 6.0 Light rain showers.
2014-Oct-23 10:50 130 19 5.4 5.0 Light rain showers.
2014-Oct-23 10:20 130 17 gusting 33 5.4 5.0 Light rain showers.
2014-Oct-23 09:50 130 19 gusting 29 5.4 5.0 Rain showers.
2014-Oct-23 09:20 130 17 5.4 5.0 Rain showers.
2014-Oct-23 08:50 120 17 gusting 27 5.4 5.0 Rain showers.
2014-Oct-23 08:20 120 20 5.4 5.0 Showers in the vicinity.
2014-Oct-23 07:50 130 17 gusting 29 5.4 5.0 Showers in the vicinity.
2014-Oct-23 07:20 130 17 gusting 27 5.4 5.0 Light rain showers.